This demonstration page uses our WeatherBlox Daily Observations layout. Learn more.

Left ArrowRight Arrow

39.01783, -85.05884

Hourly Observations for December 7, 2016

Temp ( °F °C ) Dew Point ( °F °C ) Humidity (%) Winds ( mph kmh ) Pressure ( in mb ) Visibility ( mi km ) Precip ( " mm )
12:52 am 00:52 Partly Cloudy 34 1.1 30 -1.1 85 85 WNW 8 13 30.03 1017 10 16 N/A
1:18 am 01:18 Mostly Cloudy 36 2 30 -1 81 81 W 7 11 30.06 1018 10 16 N/A
1:52 am 01:52 Cloudy 35 1.7 29 -1.7 78 78 NW 10 17 30.06 1018 10 16 N/A
2:52 am 02:52 Partly Cloudy 32 undefined 29 -1.7 88 88 WSW 3 6 30.08 1019 9 14 N/A
3:52 am 03:52 Mostly Cloudy 32 undefined 28 -2.2 85 85 NW 3 6 30.08 1019 9 14 N/A
4:52 am 04:52 Mostly Cloudy 31 -0.6 27 -2.8 85 85 W 5 7 30.11 1020 9 14 N/A
5:52 am 05:52 Mostly Cloudy 31 -0.6 24 -4.4 76 76 WNW 8 13 30.11 1020 10 16 N/A
6:52 am 06:52 Mostly Cloudy 31 -0.6 22 -5.6 69 69 WNW 5 7 30.13 1020 10 16 N/A
7:52 am 07:52 Mostly Cloudy 30 -1.1 25 -3.9 82 82 W 5 7 30.15 1021 10 16 N/A
8:52 am 08:52 Partly Cloudy 31 -0.6 24 -4.4 76 76 W 5 7 30.17 1022 10 16 N/A
9:52 am 09:52 Partly Cloudy 34 1.1 23 -5 64 64 SW 6 9 30.20 1023 10 16 N/A
10:52 am 10:52 Mostly Cloudy 36 2.2 23 -5 59 59 W 8 13 30.20 1023 10 16 N/A
11:52 am 11:52 Mostly Cloudy 36 2.2 23 -5 59 59 SSW 7 11 30.18 1022 10 16 N/A
12:52 pm 12:52 Mostly Cloudy 37 2.8 21 -6.1 52 52 SW 5 7 30.14 1021 10 16 N/A
1:52 pm 13:52 Cloudy 39 3.9 22 -5.6 50 50 W 10 17 30.13 1020 10 16 N/A
2:52 pm 14:52 Cloudy 38 3.3 22 -5.6 52 52 W 8 13 30.14 1021 10 16 N/A
3:52 pm 15:52 Cloudy 38 3.3 23 -5 55 55 W 8 13 30.13 1020 10 16 N/A
4:52 pm 16:52 Cloudy 37 2.8 23 -5 57 57 W 6 9 30.14 1021 10 16 N/A
5:52 pm 17:52 Mostly Cloudy 35 1.7 23 -5 61 61 SW 3 6 30.15 1021 10 16 N/A
6:52 pm 18:52 Mostly Cloudy 35 1.7 23 -5 61 61 SW 5 7 30.15 1021 10 16 N/A
7:52 pm 19:52 Mostly Cloudy 34 1.1 24 -4.4 67 67 N N/A 30.16 1022 10 16 N/A
8:52 pm 20:52 Cloudy 34 1.1 25 -3.9 70 70 W 9 15 30.17 1022 10 16 N/A
9:52 pm 21:52 Cloudy 34 1.1 24 -4.4 67 67 W 8 13 30.16 1021 10 16 N/A
10:52 pm 22:52 Cloudy 34 1.1 24 -4.4 67 67 W 10 17 30.17 1022 10 16 N/A
11:52 pm 23:52 Cloudy 34 1.1 23 -5 64 64 WNW 13 20 30.17 1022 10 16 N/A

Powered by AerisWeather